Flag Weather past 2 weeks in Syktyvkar, Russia

Now
28 °F

Snow flurries. Overcast.


Feels Like: 22 °F
Forecast: -3 / 9 °F
Wind: 6 mph from Northwest

Location: Syktyvkar Airport

Current Time: Nov 22, 2014 at 6:36:23 PM

Latest Report: Nov 22, 2014 at 6:00 PM


Visibility: 2 mi

Pressure: 29.95 "Hg

Humidity: 93%

Dew point: 27 °F

Location of SyktyvkarLocation

Historic Weather in Syktyvkar — Graph

°F

Syktyvkar temperature yesterday

Maximum temperature yesterday: 30 °F (at 12:00 AM)
Minimum temperature yesterday: 27 °F (at 12:30 PM)
Average temperature yesterday: 28 °F

Past Weeks' High & Low Weather Summary

 TemperatureHumidityPressure
High37 °F (Nov 12, 6:30 PM)100% (Nov 10, 6:30 AM)30.57 "Hg (Nov 10, 6:30 AM)
Low3 °F (Nov 8, 3:00 AM)58% (Nov 8, 2:00 PM)29.95 "Hg (Nov 12, 1:30 PM)
Average26 °F85%30.25 "Hg
* Reported Nov 7 5:00 PM — Nov 22 5:00 PM, Syktyvkar, Weather by CustomWeather, © 2014

Note: Actual official high and low records may vary slightly from our data, if they occured in-between our weather recording intervals... More about our weather records

Advertising

Syktyvkar weather history for previous 24 hours

 ConditionsComfort  
Time TempWeatherWind HumidityBarometerVisibility
5:00 PM
Nov 22
28 °FSnow showers. Overcast.6 mph86%29.95 "Hg1 mi
4:30 PM27 °FSnow flurries. Overcast.6 mph93%29.95 "Hg1 mi
4:00 PM27 °FSnow flurries. Overcast.8 mph93%29.95 "Hg2 mi
3:30 PM27 °FSnow showers. Cloudy.10 mph93%29.95 "Hg1 mi
3:00 PM27 °FSnow showers. Cloudy.6 mph93%29.95 "Hg1 mi
2:30 PM27 °FSnow flurries. Cloudy.3 mph93%29.95 "Hg1 mi
2:00 PM27 °FSnow showers. Cloudy.8 mph86%29.95 "Hg1 mi
1:30 PM27 °FSnow flurries. Cloudy.8 mph86%29.95 "Hg4 mi
1:00 PM27 °FSnow flurries. Cloudy.8 mph86%29.95 "Hg2 mi
12:30 PM27 °FCloudy.10 mph86%29.95 "HgN/A
12:00 PM27 °FCloudy.10 mph80%29.98 "HgN/A
11:30 AM27 °FCloudy.10 mph80%29.98 "HgN/A
11:00 AM25 °FCloudy.8 mph86%29.98 "HgN/A
10:30 AM25 °FCloudy.8 mph86%30.01 "HgN/A
10:00 AM25 °FCloudy.8 mph86%30.01 "HgN/A
9:30 AM25 °FCloudy.8 mph86%30.01 "HgN/A
9:00 AM25 °FOvercast.8 mph80%30.01 "HgN/A
8:30 AM25 °FLight freezing rain. Overcast.8 mph86%30.04 "HgN/A
8:00 AM25 °FLight freezing rain. Overcast.8 mph86%30.04 "Hg5 mi
7:30 AM25 °FOvercast.8 mph86%30.04 "Hg6 mi
7:00 AM25 °FOvercast.8 mph86%30.04 "HgN/A
6:30 AM25 °FOvercast.6 mph86%30.07 "HgN/A
6:00 AM25 °FPassing clouds.6 mph86%30.07 "HgN/A
5:30 AM25 °FLight freezing rain. Passing clouds.8 mph86%30.07 "HgN/A
5:00 AM25 °FLight freezing rain. Overcast.8 mph86%30.09 "HgN/A
4:30 AM25 °FPassing clouds.6 mph86%30.09 "Hg6 mi
4:00 AM25 °FMostly cloudy.6 mph86%30.09 "HgN/A
3:30 AM25 °FOvercast.6 mph86%30.09 "HgN/A
3:00 AM25 °FLight mixture of precip. Overcast.6 mph86%30.12 "Hg3 mi
2:30 AM25 °FLight mixture of precip. Overcast.6 mph86%30.12 "Hg3 mi
2:00 AM25 °FLight mixture of precip. Overcast.6 mph86%30.12 "HgN/A
1:30 AM25 °FOvercast.8 mph86%30.15 "Hg6 mi
1:00 AM27 °FLight snow. Overcast.3 mph80%30.15 "Hg6 mi
12:00 AM27 °FOvercast.6 mph80%30.15 "HgN/A
11:30 PM
Nov 21
27 °FOvercast.6 mph80%30.15 "HgN/A
11:00 PM27 °FOvercast.6 mph80%30.18 "HgN/A
10:30 PM27 °FOvercast.6 mph80%30.18 "HgN/A
10:00 PM27 °FOvercast.8 mph80%30.18 "HgN/A
9:30 PM27 °FLight mixture of precip. Low clouds.6 mph86%30.21 "Hg4 mi
9:00 PM27 °FFreezing rain. Low clouds.3 mph93%30.21 "Hg1 mi
8:30 PM27 °FLight mixture of precip. Mostly cloudy.6 mph93%30.21 "Hg4 mi
8:00 PM27 °FLight mixture of precip. Mostly cloudy.6 mph93%30.21 "Hg3 mi
7:30 PM27 °FLight freezing rain. Mostly cloudy.6 mph93%30.21 "Hg4 mi
7:00 PM27 °FLight freezing rain. Mostly cloudy.6 mph93%30.24 "Hg5 mi
6:30 PM27 °FLight freezing rain. Mostly cloudy.3 mph93%30.24 "Hg3 mi
6:00 PM27 °FMostly cloudy.6 mph93%30.24 "HgN/A
Weather by CustomWeather, © 2014

See weather overviewHow to use our weather pages